TimeMST,TemperatureF,Dew PointF,Humidity,Sea Level PressureIn,VisibilityMPH,Wind Direction,Wind SpeedMPH,Gust SpeedMPH,PrecipitationIn,Events,Conditions,WindDirDegrees,DateUTC
12:53 AM,26.1,19.9,78,30.42,6.0,Calm,Calm,-,N/A,,Haze,0,2013-02-13 07:53:00
1:53 AM,26.1,19.9,78,30.40,6.0,Calm,Calm,-,N/A,,Haze,0,2013-02-13 08:53:00
2:53 AM,26.1,19.0,75,30.40,7.0,SSE,4.6,-,N/A,,Overcast,150,2013-02-13 09:53:00
3:53 AM,25.0,17.1,72,30.37,8.0,SSE,4.6,-,N/A,,Partly Cloudy,160,2013-02-13 10:53:00
4:53 AM,23.0,17.1,78,30.39,8.0,Calm,Calm,-,N/A,,Overcast,0,2013-02-13 11:53:00
5:53 AM,23.0,19.0,85,30.41,5.0,NNW,6.9,-,N/A,,Overcast,330,2013-02-13 12:53:00
6:53 AM,25.0,19.0,78,30.40,6.0,Calm,Calm,-,N/A,,Haze,0,2013-02-13 13:53:00
7:53 AM,25.0,19.0,78,30.39,5.0,South,4.6,-,N/A,,Haze,170,2013-02-13 14:53:00
8:53 AM,28.0,19.9,72,30.41,7.0,South,6.9,-,N/A,,Overcast,170,2013-02-13 15:53:00
9:53 AM,28.9,21.0,72,30.39,7.0,South,9.2,-,N/A,,Overcast,190,2013-02-13 16:53:00
10:53 AM,30.0,21.0,69,30.40,7.0,South,5.8,-,N/A,,Overcast,170,2013-02-13 17:53:00
11:53 AM,30.9,21.0,67,30.39,7.0,SSE,3.5,-,N/A,,Overcast,150,2013-02-13 18:53:00
12:53 PM,32.0,21.0,64,30.36,10.0,SSW,3.5,-,N/A,,Overcast,200,2013-02-13 19:53:00
1:53 PM,32.0,21.9,66,30.34,7.0,NW,3.5,-,N/A,,Overcast,310,2013-02-13 20:53:00
2:53 PM,33.1,24.1,70,30.32,5.0,Calm,Calm,-,N/A,,Haze,0,2013-02-13 21:53:00
3:53 PM,33.1,23.0,66,30.32,6.0,Calm,Calm,-,N/A,,Haze,0,2013-02-13 22:53:00
4:53 PM,33.1,23.0,66,30.32,6.0,Calm,Calm,-,N/A,,Haze,0,2013-02-13 23:53:00
5:53 PM,34.0,23.0,64,30.30,6.0,Calm,Calm,-,N/A,,Haze,0,2013-02-14 00:53:00
6:53 PM,32.0,24.1,73,30.30,6.0,Calm,Calm,-,N/A,,Haze,0,2013-02-14 01:53:00
7:53 PM,28.9,25.0,85,30.31,4.0,NW,3.5,-,N/A,,Overcast,320,2013-02-14 02:53:00
8:53 PM,28.9,24.1,82,30.30,3.0,Calm,Calm,-,N/A,,Haze,0,2013-02-14 03:53:00
9:53 PM,30.0,24.1,79,30.29,4.0,Calm,Calm,-,N/A,,Haze,0,2013-02-14 04:53:00
10:53 PM,30.0,24.1,79,30.29,5.0,Calm,Calm,-,N/A,,Haze,0,2013-02-14 05:53:00
11:53 PM,28.9,25.0,85,30.28,4.0,Calm,Calm,-,N/A,,Overcast,0,2013-02-14 06:53:00